Home > Weather > Rohrbach > Past weeks

Flag for Austria Past Weather in Rohrbach, Upper Austria, Austria — Yesterday and Last 2 Weeks

Now
63 °F

Mild.


Feels Like: 63 °F
Forecast: 56 / 78 °F
Wind: No wind

Location: Rohrbach

Current Time: Jul 29, 2016 at 11:51:46 PM

Latest Report: Jul 29, 2016 at 11:00 PM


Visibility: N/A

Pressure: 29.99 "Hg (27.93 "Hg at 605m altitude)

Humidity: 83%

Dew Point: 57 °F

Location of RohrbachLocation

Past Weather in Rohrbach — Graph

°F

Rohrbach Temperature Yesterday

Maximum temperature yesterday: 73 °F (at 4:00 PM)
Minimum temperature yesterday: 61 °F (at 6:00 AM)
Average temperature yesterday: 66 °F

High & Low Weather Summary for the Past Weeks

 TemperatureHumidityPressure
High80 °F (Jul 23, 3:00 PM)100% (Jul 18, 4:00 AM)30.30 "Hg (Jul 18, 4:00 AM)
Low49 °F (Jul 15, 6:00 AM)48% (Jul 18, 6:00 PM)29.90 "Hg (Jul 22, 6:00 PM)
Average66 °F79%30.07 "Hg
* Reported Jul 14 10:00 PM — Jul 29 10:00 PM, Rohrbach, Weather by CustomWeather, © 2016

Note: Actual official high and low records may vary slightly from our data, if they occured in-between our weather recording intervals... More about our weather records

Advertising

Rohrbach Weather History for the Previous 24 Hours

Scroll right to see more
 ConditionsComfort  
Time TempWeatherWind HumidityBarometerVisibility
10:00 PM
Fri, Jul 29
65 °FMild.1 mph76%29.98 "HgN/A
9:00 PM68 °FMild.No wind70%29.96 "HgN/A
8:00 PM72 °FMild.1 mph59%29.93 "HgN/A
7:00 PM74 °FMild.1 mph54%29.93 "HgN/A
6:00 PM73 °FPassing clouds.3 mph56%29.93 "Hg1 mi
5:00 PM74 °FMild.2 mph60%29.93 "HgN/A
4:00 PM73 °FMild.3 mph61%29.94 "HgN/A
3:00 PM72 °FMild.2 mph68%29.96 "HgN/A
2:00 PM70 °FMild.2 mph66%29.97 "HgN/A
1:00 PM69 °FMild.2 mph70%29.98 "HgN/A
12:00 PM68 °FMild.5 mph72%29.99 "HgN/A
11:00 AM67 °FMild.2 mph80%30.01 "HgN/A
10:00 AM65 °FMild.2 mph84%30.01 "HgN/A
9:00 AM62 °FMild.1 mph90%30.02 "HgN/A
8:00 AM58 °FCool.No wind97%30.03 "HgN/A
7:00 AM57 °FFog.1 mph96%30.03 "HgN/A
6:00 AM56 °FCool.No wind97%30.03 "HgN/A
5:00 AM57 °FCool.1 mph96%30.02 "HgN/A
4:00 AM56 °FCool.No wind98%30.03 "HgN/A
3:00 AM58 °FCool.No wind97%30.02 "HgN/A
1:00 AM60 °FCool.1 mph94%30.02 "HgN/A
12:00 AM61 °FCool.1 mph92%30.02 "HgN/A
Weather by CustomWeather, © 2016

See weather overviewHow to use our weather pages